User: anonymous   Login
Location: Unspecified
(43.4000°N, 0.0000°E)
Time: 08:38:57
(UTC+00:00)
Language:

LilacSat-2 - Orbit

View from above orbital plane
View from above orbital plane
View from above satellite
View from above satellite

Ground track
Ground track

The orbit data is extracted from the following two-line orbital elements,

1 40908U 15049K   19228.62195994 -.00000068  00000-0 -11035-6 0  9999
2 40908  97.4802 228.1834 0016232   4.6462  89.7881 15.13824522215728
Epoch (UTC): 16 August 2019 14:55:37
Eccentricity: 0.0016232
inclination: 97.4802°
perigee height: 513 km
apogee height: 536 km
right ascension of ascending node: 228.1834°
argument of perigee: 4.6462°
revolutions per day: 15.13824522
mean anomaly at epoch: 89.7881°
orbit number at epoch: 21572

The dashed part of the orbit path shows where the satellite is in the earth's shadow,  

DLR